Time,TemperatureF,DewpointF,PressureIn,WindDirection,WindDirectionDegrees,WindSpeedMPH,WindSpeedGustMPH,Humidity,HourlyPrecipIn,Conditions,Clouds,dailyrainin,SoftwareType,DateUTC
2013-10-13 00:00:00,61.3,48.6,30.35,North,0,2.0,8.0,63,0.00,CLR,,0.00,WeatherDisplay:10.37,2013-10-13 04:00:00,
2013-10-13 00:05:00,63.8,46.8,30.34,North,11,2.0,9.0,54,0.00,CLR,,0.00,WeatherDisplay:10.37,2013-10-13 04:05:00,
2013-10-13 00:10:00,63.8,46.8,30.34,NNE,22,2.0,9.0,54,0.00,CLR,,0.00,WeatherDisplay:10.37,2013-10-13 04:10:00,
2013-10-13 00:15:00,63.8,46.8,30.34,NNE,22,2.0,9.0,54,0.00,CLR,,0.00,WeatherDisplay:10.37,2013-10-13 04:15:00,
2013-10-13 00:20:00,63.8,46.8,30.34,NNE,22,2.0,9.0,54,0.00,CLR,,0.00,WeatherDisplay:10.37,2013-10-13 04:20:00,
2013-10-13 00:25:00,63.8,46.8,30.34,NNE,22,2.0,9.0,54,0.00,CLR,,0.00,WeatherDisplay:10.37,2013-10-13 04:25:00,
2013-10-13 00:30:00,63.8,46.8,30.34,NNE,22,2.0,9.0,54,0.00,CLR,,0.00,WeatherDisplay:10.37,2013-10-13 04:30:00,
2013-10-13 00:35:00,64.3,46.8,30.35,North,352,3.0,11.0,53,0.00,CLR,,0.00,WeatherDisplay:10.37,2013-10-13 04:35:00,
2013-10-13 00:40:00,64.3,46.8,30.35,NNW,338,3.0,11.0,53,0.00,CLR,,0.00,WeatherDisplay:10.37,2013-10-13 04:40:00,
2013-10-13 00:45:00,64.3,46.8,30.35,NNW,338,3.0,11.0,53,0.00,CLR,,0.00,WeatherDisplay:10.37,2013-10-13 04:45:00,
2013-10-13 00:50:00,64.3,46.8,30.35,NNW,338,3.0,11.0,53,0.00,CLR,,0.00,WeatherDisplay:10.37,2013-10-13 04:50:00,
2013-10-13 00:55:00,64.3,46.8,30.35,NNW,338,3.0,11.0,53,0.00,CLR,,0.00,WeatherDisplay:10.37,2013-10-13 04:55:00,
2013-10-13 01:00:00,64.3,46.8,30.35,NNW,338,3.0,11.0,53,0.00,CLR,,0.00,WeatherDisplay:10.37,2013-10-13 05:00:00,
2013-10-13 01:05:00,65.6,46.5,30.35,NNW,328,3.0,9.0,50,0.00,CLR,,0.00,WeatherDisplay:10.37,2013-10-13 05:05:00,
2013-10-13 01:10:00,65.6,46.5,30.35,NW,315,3.0,9.0,50,0.00,CLR,,0.00,WeatherDisplay:10.37,2013-10-13 05:10:00,
2013-10-13 01:15:00,65.6,46.5,30.35,NW,315,3.0,9.0,50,0.00,CLR,,0.00,WeatherDisplay:10.37,2013-10-13 05:15:00,
2013-10-13 01:20:00,65.6,46.5,30.35,NW,315,3.0,9.0,50,0.00,CLR,,0.00,WeatherDisplay:10.37,2013-10-13 05:20:00,
2013-10-13 01:25:00,65.6,46.5,30.35,NW,315,3.0,9.0,50,0.00,CLR,,0.00,WeatherDisplay:10.37,2013-10-13 05:25:00,
2013-10-13 01:30:00,65.6,46.5,30.35,NW,315,3.0,9.0,50,0.00,CLR,,0.00,WeatherDisplay:10.37,2013-10-13 05:30:00,
2013-10-13 01:35:00,66.5,45.1,30.35,NW,326,3.0,11.0,46,0.00,CLR,,0.00,WeatherDisplay:10.37,2013-10-13 05:35:00,
2013-10-13 01:40:00,66.5,45.1,30.35,NNW,338,3.0,11.0,46,0.00,CLR,,0.00,WeatherDisplay:10.37,2013-10-13 05:40:00,
2013-10-13 01:45:00,66.5,45.1,30.35,NNW,338,3.0,11.0,46,0.00,CLR,,0.00,WeatherDisplay:10.37,2013-10-13 05:45:00,
2013-10-13 01:50:00,66.5,45.1,30.35,NNW,338,3.0,11.0,46,0.00,CLR,,0.00,WeatherDisplay:10.37,2013-10-13 05:50:00,
2013-10-13 01:55:00,66.5,45.1,30.35,NNW,338,3.0,11.0,46,0.00,CLR,,0.00,WeatherDisplay:10.37,2013-10-13 05:55:00,
2013-10-13 02:00:00,66.5,45.1,30.35,NNW,338,3.0,11.0,46,0.00,CLR,,0.00,WeatherDisplay:10.37,2013-10-13 06:00:00,
2013-10-13 02:05:00,67.0,46.1,30.34,NW,326,3.0,11.0,47,0.00,CLR,,0.00,WeatherDisplay:10.37,2013-10-13 06:05:00,
2013-10-13 02:10:00,67.0,46.1,30.34,NW,315,3.0,11.0,47,0.00,CLR,,0.00,WeatherDisplay:10.37,2013-10-13 06:10:00,
2013-10-13 02:15:00,67.0,46.1,30.34,NW,315,3.0,11.0,47,0.00,CLR,,0.00,WeatherDisplay:10.37,2013-10-13 06:15:00,
2013-10-13 02:20:00,67.0,46.1,30.34,NW,315,3.0,11.0,47,0.00,CLR,,0.00,WeatherDisplay:10.37,2013-10-13 06:20:00,
2013-10-13 02:25:00,67.0,46.1,30.34,NW,315,3.0,11.0,47,0.00,CLR,,0.00,WeatherDisplay:10.37,2013-10-13 06:25:00,
2013-10-13 02:30:00,67.0,46.1,30.34,NW,315,3.0,11.0,47,0.00,CLR,,0.00,WeatherDisplay:10.37,2013-10-13 06:30:00,
2013-10-13 02:35:00,67.2,46.8,30.34,NW,315,3.0,10.0,48,0.00,CLR,,0.00,WeatherDisplay:10.37,2013-10-13 06:35:00,
2013-10-13 02:40:00,67.2,46.8,30.34,NW,315,3.0,10.0,48,0.00,CLR,,0.00,WeatherDisplay:10.37,2013-10-13 06:40:00,
2013-10-13 02:45:00,67.2,46.8,30.34,NW,315,3.0,10.0,48,0.00,CLR,,0.00,WeatherDisplay:10.37,2013-10-13 06:45:00,
2013-10-13 02:50:00,67.2,46.8,30.34,NW,315,3.0,10.0,48,0.00,CLR,,0.00,WeatherDisplay:10.37,2013-10-13 06:50:00,
2013-10-13 02:55:00,67.2,46.8,30.34,NW,315,3.0,10.0,48,0.00,CLR,,0.00,WeatherDisplay:10.37,2013-10-13 06:55:00,
2013-10-13 03:00:00,67.2,46.8,30.34,NW,315,3.0,10.0,48,0.00,CLR,,0.00,WeatherDisplay:10.37,2013-10-13 07:00:00,
2013-10-13 03:05:00,67.3,44.6,30.33,NNW,328,3.0,12.0,44,0.00,CLR,,0.00,WeatherDisplay:10.37,2013-10-13 07:05:00,
2013-10-13 03:10:00,67.3,44.6,30.33,NNW,338,3.0,12.0,44,0.00,CLR,,0.00,WeatherDisplay:10.37,2013-10-13 07:10:00,
2013-10-13 03:15:00,67.3,44.6,30.33,NNW,338,3.0,12.0,44,0.00,CLR,,0.00,WeatherDisplay:10.37,2013-10-13 07:15:00,
2013-10-13 03:20:00,67.3,44.6,30.33,NNW,338,3.0,12.0,44,0.00,CLR,,0.00,WeatherDisplay:10.37,2013-10-13 07:20:00,
2013-10-13 03:25:00,67.3,44.6,30.33,NNW,338,3.0,12.0,44,0.00,CLR,,0.00,WeatherDisplay:10.37,2013-10-13 07:25:00,
2013-10-13 03:30:00,67.3,44.6,30.33,NNW,338,3.0,12.0,44,0.00,CLR,,0.00,WeatherDisplay:10.37,2013-10-13 07:30:00,
2013-10-13 03:35:00,68.1,44.7,30.32,NNW,338,3.0,11.0,43,0.00,CLR,,0.00,WeatherDisplay:10.37,2013-10-13 07:35:00,
2013-10-13 03:40:00,68.1,44.7,30.32,NNW,338,3.0,11.0,43,0.00,CLR,,0.00,WeatherDisplay:10.37,2013-10-13 07:40:00,
2013-10-13 03:45:00,68.1,44.7,30.32,NNW,338,3.0,11.0,43,0.00,CLR,,0.00,WeatherDisplay:10.37,2013-10-13 07:45:00,
2013-10-13 03:50:00,68.1,44.7,30.32,NNW,338,3.0,11.0,43,0.00,CLR,,0.00,WeatherDisplay:10.37,2013-10-13 07:50:00,
2013-10-13 03:55:00,68.1,44.7,30.32,NNW,338,3.0,11.0,43,0.00,CLR,,0.00,WeatherDisplay:10.37,2013-10-13 07:55:00,
2013-10-13 04:00:00,68.1,44.7,30.32,NNW,338,3.0,11.0,43,0.00,CLR,,0.00,WeatherDisplay:10.37,2013-10-13 08:00:00,
2013-10-13 04:05:00,67.9,44.6,30.32,NW,326,3.0,11.0,43,0.00,CLR,,0.00,WeatherDisplay:10.37,2013-10-13 08:05:00,
2013-10-13 04:10:00,67.9,44.6,30.32,NW,315,3.0,11.0,43,0.00,CLR,,0.00,WeatherDisplay:10.37,2013-10-13 08:10:00,
2013-10-13 04:15:00,67.9,44.6,30.32,NW,315,3.0,11.0,43,0.00,CLR,,0.00,WeatherDisplay:10.37,2013-10-13 08:15:00,
2013-10-13 04:20:00,67.9,44.6,30.32,NW,315,3.0,11.0,43,0.00,CLR,,0.00,WeatherDisplay:10.37,2013-10-13 08:20:00,
2013-10-13 04:25:00,67.9,44.6,30.32,NW,315,3.0,11.0,43,0.00,CLR,,0.00,WeatherDisplay:10.37,2013-10-13 08:25:00,
2013-10-13 04:30:00,67.9,44.6,30.32,NW,315,3.0,11.0,43,0.00,CLR,,0.00,WeatherDisplay:10.37,2013-10-13 08:30:00,
2013-10-13 04:35:00,68.2,44.2,30.32,NW,315,3.0,12.0,42,0.00,CLR,,0.00,WeatherDisplay:10.37,2013-10-13 08:35:00,
2013-10-13 04:40:00,68.2,44.2,30.32,NW,315,3.0,12.0,42,0.00,CLR,,0.00,WeatherDisplay:10.37,2013-10-13 08:40:00,
2013-10-13 04:45:00,68.2,44.2,30.32,NW,315,3.0,12.0,42,0.00,CLR,,0.00,WeatherDisplay:10.37,2013-10-13 08:45:00,
2013-10-13 04:50:00,68.2,44.2,30.32,NW,315,3.0,12.0,42,0.00,CLR,,0.00,WeatherDisplay:10.37,2013-10-13 08:50:00,
2013-10-13 04:55:00,68.2,44.2,30.32,NW,315,3.0,12.0,42,0.00,CLR,,0.00,WeatherDisplay:10.37,2013-10-13 08:55:00,
2013-10-13 05:00:00,68.2,44.2,30.32,NW,315,3.0,12.0,42,0.00,CLR,,0.00,WeatherDisplay:10.37,2013-10-13 09:00:00,
2013-10-13 05:05:00,67.5,43.0,30.32,NW,315,3.0,12.0,41,0.00,CLR,,0.00,WeatherDisplay:10.37,2013-10-13 09:05:00,
2013-10-13 05:10:00,67.5,43.0,30.32,NW,315,3.0,12.0,41,0.00,CLR,,0.00,WeatherDisplay:10.37,2013-10-13 09:10:00,
2013-10-13 05:15:00,67.5,43.0,30.32,NW,315,3.0,12.0,41,0.00,CLR,,0.00,WeatherDisplay:10.37,2013-10-13 09:15:00,
2013-10-13 05:20:00,67.5,43.0,30.32,NW,315,3.0,12.0,41,0.00,CLR,,0.00,WeatherDisplay:10.37,2013-10-13 09:20:00,
2013-10-13 05:25:00,67.5,43.0,30.32,NW,315,3.0,12.0,41,0.00,CLR,,0.00,WeatherDisplay:10.37,2013-10-13 09:25:00,
2013-10-13 05:30:00,67.5,43.0,30.32,NW,315,3.0,12.0,41,0.00,CLR,,0.00,WeatherDisplay:10.37,2013-10-13 09:30:00,
2013-10-13 05:35:00,65.7,42.6,30.33,NNW,328,5.0,14.0,43,0.00,CLR,,0.00,WeatherDisplay:10.37,2013-10-13 09:35:00,
2013-10-13 05:40:00,65.7,42.6,30.33,NNW,338,5.0,14.0,43,0.00,CLR,,0.00,WeatherDisplay:10.37,2013-10-13 09:40:00,
2013-10-13 05:45:00,65.7,42.6,30.33,NNW,338,5.0,14.0,43,0.00,CLR,,0.00,WeatherDisplay:10.37,2013-10-13 09:45:00,
2013-10-13 05:50:00,65.7,42.6,30.33,NNW,338,5.0,14.0,43,0.00,CLR,,0.00,WeatherDisplay:10.37,2013-10-13 09:50:00,
2013-10-13 05:55:00,65.7,42.6,30.33,NNW,338,5.0,14.0,43,0.00,CLR,,0.00,WeatherDisplay:10.37,2013-10-13 09:55:00,
2013-10-13 06:00:00,65.7,42.6,30.33,NNW,338,5.0,14.0,43,0.00,CLR,,0.00,WeatherDisplay:10.37,2013-10-13 10:00:00,
2013-10-13 06:05:00,64.5,42.7,30.33,North,350,6.0,12.0,45,0.00,CLR,,0.00,WeatherDisplay:10.37,2013-10-13 10:05:00,
2013-10-13 06:10:00,64.5,42.7,30.33,North,0,6.0,12.0,45,0.00,CLR,,0.00,WeatherDisplay:10.37,2013-10-13 10:10:00,
2013-10-13 06:15:00,64.5,42.7,30.33,North,0,6.0,12.0,45,0.00,CLR,,0.00,WeatherDisplay:10.37,2013-10-13 10:15:00,
2013-10-13 06:20:00,64.5,42.7,30.33,North,0,6.0,12.0,45,0.00,CLR,,0.00,WeatherDisplay:10.37,2013-10-13 10:20:00,
2013-10-13 06:25:00,64.5,42.7,30.33,North,0,6.0,12.0,45,0.00,CLR,,0.00,WeatherDisplay:10.37,2013-10-13 10:25:00,
2013-10-13 06:30:00,64.5,42.7,30.33,North,0,6.0,12.0,45,0.00,CLR,,0.00,WeatherDisplay:10.37,2013-10-13 10:30:00,
2013-10-13 06:35:00,62.6,40.9,30.34,North,0,6.0,12.0,45,0.00,CLR,,0.00,WeatherDisplay:10.37,2013-10-13 10:35:00,
2013-10-13 06:40:00,62.6,40.9,30.34,North,0,6.0,12.0,45,0.00,CLR,,0.00,WeatherDisplay:10.37,2013-10-13 10:40:00,
2013-10-13 06:45:00,62.6,40.9,30.34,North,0,6.0,12.0,45,0.00,CLR,,0.00,WeatherDisplay:10.37,2013-10-13 10:45:00,
2013-10-13 06:50:00,62.6,40.9,30.34,North,0,6.0,12.0,45,0.00,CLR,,0.00,WeatherDisplay:10.37,2013-10-13 10:50:00,
2013-10-13 06:55:00,62.6,40.9,30.34,North,0,6.0,12.0,45,0.00,CLR,,0.00,WeatherDisplay:10.37,2013-10-13 10:55:00,
2013-10-13 07:00:00,62.6,40.9,30.34,North,0,6.0,12.0,45,0.00,CLR,,0.00,WeatherDisplay:10.37,2013-10-13 11:00:00,
2013-10-13 07:05:00,60.8,40.4,30.34,North,0,6.0,12.0,47,0.00,CLR,,0.00,WeatherDisplay:10.37,2013-10-13 11:05:00,
2013-10-13 07:10:00,60.8,40.4,30.34,North,0,6.0,12.0,47,0.00,CLR,,0.00,WeatherDisplay:10.37,2013-10-13 11:10:00,
2013-10-13 07:15:00,60.8,40.4,30.34,North,0,6.0,12.0,47,0.00,CLR,,0.00,WeatherDisplay:10.37,2013-10-13 11:15:00,
2013-10-13 07:20:00,60.8,40.4,30.34,North,0,6.0,12.0,47,0.00,CLR,,0.00,WeatherDisplay:10.37,2013-10-13 11:20:00,
2013-10-13 07:25:00,60.8,40.4,30.34,North,0,6.0,12.0,47,0.00,CLR,,0.00,WeatherDisplay:10.37,2013-10-13 11:25:00,
2013-10-13 07:30:00,60.8,40.4,30.34,North,0,6.0,12.0,47,0.00,CLR,,0.00,WeatherDisplay:10.37,2013-10-13 11:30:00,
2013-10-13 18:49:00,58.3,41.7,30.36,NNE,15,12.0,12.0,54,0.00,CLR,,0.00,WeatherDisplay:10.37,2013-10-13 22:49:00,
2013-10-13 18:50:00,58.3,41.7,30.36,NNW,340,12.0,12.0,54,0.00,CLR,,0.00,WeatherDisplay:10.37,2013-10-13 22:50:00,
2013-10-13 18:54:00,57.8,41.7,30.36,North,355,4.3,5.8,55,0.00,CLR,,0.00,WeatherDisplay:10.37,2013-10-13 22:54:00,
2013-10-13 18:55:00,57.8,41.8,30.36,North,354,3.0,12.0,55,0.00,CLR,,0.00,WeatherDisplay:10.37,2013-10-13 22:55:00,
2013-10-13 18:56:00,57.6,41.5,30.36,NNW,337,5.1,5.8,55,0.00,CLR,,0.00,WeatherDisplay:10.37,2013-10-13 22:56:00,
2013-10-13 19:00:00,57.4,41.4,30.36,North,358,5.0,8.0,55,0.00,CLR,,0.00,WeatherDisplay:10.37,2013-10-13 23:00:00,
2013-10-13 19:01:00,57.3,41.3,30.36,North,5,3.0,5.8,55,0.00,CLR,,0.00,WeatherDisplay:10.37,2013-10-13 23:01:00,
2013-10-13 19:05:00,56.9,41.8,30.36,North,10,2.7,4.6,57,0.00,CLR,,0.00,WeatherDisplay:10.37,2013-10-13 23:05:00,
2013-10-13 19:07:00,56.5,41.4,30.36,North,360,2.5,3.5,57,0.00,CLR,,0.00,WeatherDisplay:10.37,2013-10-13 23:07:00,
2013-10-13 19:10:00,56.2,41.6,30.36,NNW,338,3.5,4.6,58,0.00,CLR,,0.00,WeatherDisplay:10.37,2013-10-13 23:10:00,
2013-10-13 19:11:00,56.1,41.5,30.36,North,9,2.9,4.6,58,0.00,CLR,,0.00,WeatherDisplay:10.37,2013-10-13 23:11:00,
2013-10-13 19:12:00,55.9,41.3,30.36,North,11,2.9,4.6,58,0.00,CLR,,0.00,WeatherDisplay:10.37,2013-10-13 23:12:00,
2013-10-13 19:15:00,55.6,41.5,30.36,North,350,2.7,3.5,59,0.00,CLR,,0.00,WeatherDisplay:10.37,2013-10-13 23:15:00,
2013-10-13 19:16:00,55.6,41.5,30.36,NNE,12,2.7,3.5,59,0.00,CLR,,0.00,WeatherDisplay:10.37,2013-10-13 23:16:00,
2013-10-13 19:17:00,55.4,41.3,30.36,NNE,17,2.2,3.5,59,0.00,CLR,,0.00,WeatherDisplay:10.37,2013-10-13 23:17:00,
2013-10-13 19:20:00,55.3,41.2,30.37,NNE,15,3.0,3.5,59,0.00,CLR,,0.00,WeatherDisplay:10.37,2013-10-13 23:20:00,
2013-10-13 19:21:00,55.2,41.1,30.37,North,5,2.8,4.0,59,0.00,CLR,,0.00,WeatherDisplay:10.37,2013-10-13 23:21:00,
2013-10-13 19:22:00,55.2,41.1,30.37,NNE,13,3.3,5.0,59,0.00,CLR,,0.00,WeatherDisplay:10.37,2013-10-13 23:22:00,
2013-10-13 19:25:00,54.9,41.3,30.37,North,355,2.5,3.5,60,0.00,CLR,,0.00,WeatherDisplay:10.37,2013-10-13 23:25:00,
2013-10-13 19:26:00,54.9,41.3,30.37,North,355,2.5,3.5,60,0.00,CLR,,0.00,WeatherDisplay:10.37,2013-10-13 23:26:00,
2013-10-13 19:27:00,54.8,41.2,30.37,North,5,1.5,3.5,60,0.00,CLR,,0.00,WeatherDisplay:10.37,2013-10-13 23:27:00,
2013-10-13 19:28:00,54.7,41.1,30.37,North,5,1.5,3.0,60,0.00,CLR,,0.00,WeatherDisplay:10.37,2013-10-13 23:28:00,
2013-10-13 19:30:00,54.5,41.3,30.37,North,350,1.5,3.5,61,0.00,CLR,,0.00,WeatherDisplay:10.37,2013-10-13 23:30:00,
2013-10-13 19:31:00,54.4,41.2,30.37,NNW,337,2.1,2.3,61,0.00,CLR,,0.00,WeatherDisplay:10.37,2013-10-13 23:31:00,
2013-10-13 19:32:00,54.3,41.1,30.37,NNW,338,1.9,3.5,61,0.00,CLR,,0.00,WeatherDisplay:10.37,2013-10-13 23:32:00,
2013-10-13 19:33:00,54.2,41.0,30.37,NNW,344,1.0,3.5,61,0.00,CLR,,0.00,WeatherDisplay:10.37,2013-10-13 23:33:00,
2013-10-13 19:35:00,53.9,41.2,30.37,NNW,338,0.2,1.1,62,0.00,CLR,,0.00,WeatherDisplay:10.37,2013-10-13 23:35:00,
2013-10-13 19:36:00,53.8,41.1,30.37,NNW,338,0.5,1.1,62,0.00,CLR,,0.00,WeatherDisplay:10.37,2013-10-13 23:36:00,
2013-10-13 19:37:00,53.7,41.4,30.37,NNW,338,0.1,2.3,63,0.00,CLR,,0.00,WeatherDisplay:10.37,2013-10-13 23:37:00,
2013-10-13 19:38:00,53.6,41.3,30.37,NNW,338,0.4,2.0,63,0.00,CLR,,0.00,WeatherDisplay:10.37,2013-10-13 23:38:00,
2013-10-13 19:39:00,53.5,41.2,30.37,NNW,348,0.7,2.3,63,0.00,CLR,,0.00,WeatherDisplay:10.37,2013-10-13 23:39:00,
2013-10-13 19:40:00,53.3,41.0,30.37,NNW,346,0.3,2.3,63,0.00,CLR,,0.00,WeatherDisplay:10.37,2013-10-13 23:40:00,
2013-10-13 19:41:00,53.2,41.3,30.37,NNW,346,0.1,2.3,64,0.00,CLR,,0.00,WeatherDisplay:10.37,2013-10-13 23:41:00,
2013-10-13 19:42:00,53.1,41.2,30.37,NNW,346,0.6,1.1,64,0.00,CLR,,0.00,WeatherDisplay:10.37,2013-10-13 23:42:00,
2013-10-13 19:43:00,53.1,41.2,30.37,NNW,346,0.4,2.3,64,0.00,CLR,,0.00,WeatherDisplay:10.37,2013-10-13 23:43:00,
2013-10-13 19:44:00,53.0,41.5,30.37,NNW,346,0.1,1.1,65,0.00,CLR,,0.00,WeatherDisplay:10.37,2013-10-13 23:44:00,
2013-10-13 19:45:00,52.9,41.4,30.37,NNW,345,0.8,2.3,65,0.00,CLR,,0.00,WeatherDisplay:10.37,2013-10-13 23:45:00,
2013-10-13 19:46:00,52.8,41.4,30.37,North,9,0.7,2.3,65,0.00,CLR,,0.00,WeatherDisplay:10.37,2013-10-13 23:46:00,
2013-10-13 19:48:00,52.8,41.4,30.37,North,351,1.3,3.5,65,0.00,CLR,,0.00,WeatherDisplay:10.37,2013-10-13 23:48:00,
2013-10-13 19:49:00,52.6,41.6,30.37,NNW,340,0.3,2.3,66,0.00,CLR,,0.00,WeatherDisplay:10.37,2013-10-13 23:49:00,
2013-10-13 19:51:00,52.6,41.6,30.37,NNW,335,1.0,2.3,66,0.00,CLR,,0.00,WeatherDisplay:10.37,2013-10-13 23:51:00,
2013-10-13 19:52:00,52.6,41.6,30.37,NNW,347,0.8,3.5,66,0.00,CLR,,0.00,WeatherDisplay:10.37,2013-10-13 23:52:00,
2013-10-13 19:53:00,52.6,41.6,30.37,North,351,0.9,2.3,66,0.00,CLR,,0.00,WeatherDisplay:10.37,2013-10-13 23:53:00,
2013-10-13 19:54:00,52.5,41.5,30.37,North,360,0.9,2.3,66,0.00,CLR,,0.00,WeatherDisplay:10.37,2013-10-13 23:54:00,
2013-10-13 19:56:00,52.5,41.1,30.37,NNE,12,2.0,3.5,65,0.00,CLR,,0.00,WeatherDisplay:10.37,2013-10-13 23:56:00,
2013-10-13 19:57:00,52.5,41.1,30.37,North,5,2.4,3.5,65,0.00,CLR,,0.00,WeatherDisplay:10.37,2013-10-13 23:57:00,
2013-10-13 19:58:00,52.5,41.1,30.37,NNW,348,2.6,3.5,65,0.00,CLR,,0.00,WeatherDisplay:10.37,2013-10-13 23:58:00,
2013-10-13 19:59:00,52.5,41.1,30.37,North,5,2.2,3.5,65,0.00,CLR,,0.00,WeatherDisplay:10.37,2013-10-13 23:59:00,
2013-10-13 20:00:00,52.5,41.1,30.37,North,360,2.8,3.5,65,0.00,CLR,,0.00,WeatherDisplay:10.37,2013-10-14 00:00:00,
2013-10-13 20:02:00,52.5,41.1,30.37,North,351,2.7,3.5,65,0.00,CLR,,0.00,WeatherDisplay:10.37,2013-10-14 00:02:00,
2013-10-13 20:03:00,52.4,41.0,30.37,North,5,2.2,3.5,65,0.00,CLR,,0.00,WeatherDisplay:10.37,2013-10-14 00:03:00,
2013-10-13 20:04:00,52.4,41.0,30.37,North,355,2.0,3.5,65,0.00,CLR,,0.00,WeatherDisplay:10.37,2013-10-14 00:04:00,
2013-10-13 20:05:00,52.4,41.4,30.37,North,5,2.3,3.5,66,0.00,CLR,,0.00,WeatherDisplay:10.37,2013-10-14 00:05:00,
2013-10-13 20:06:00,52.4,41.4,30.37,North,11,1.6,3.0,66,0.00,CLR,,0.00,WeatherDisplay:10.37,2013-10-14 00:06:00,
2013-10-13 20:07:00,52.3,41.3,30.37,NNE,13,1.9,3.5,66,0.00,CLR,,0.00,WeatherDisplay:10.37,2013-10-14 00:07:00,
2013-10-13 20:08:00,52.3,41.3,30.37,NNE,12,2.2,3.5,66,0.00,CLR,,0.00,WeatherDisplay:10.37,2013-10-14 00:08:00,
2013-10-13 20:09:00,52.2,41.2,30.37,NNE,16,2.3,3.5,66,0.00,CLR,,0.00,WeatherDisplay:10.37,2013-10-14 00:09:00,
2013-10-13 20:11:00,52.2,41.2,30.37,NNE,14,1.7,3.5,66,0.00,CLR,,0.00,WeatherDisplay:10.37,2013-10-14 00:11:00,
2013-10-13 20:12:00,52.1,41.1,30.37,North,5,1.8,3.5,66,0.00,CLR,,0.00,WeatherDisplay:10.37,2013-10-14 00:12:00,
2013-10-13 20:14:00,52.0,41.0,30.37,North,11,2.0,3.5,66,0.00,CLR,,0.00,WeatherDisplay:10.37,2013-10-14 00:14:00,
2013-10-13 20:16:00,51.9,40.9,30.37,NNE,12,1.4,2.3,66,0.00,CLR,,0.00,WeatherDisplay:10.37,2013-10-14 00:16:00,
2013-10-13 20:17:00,51.8,41.2,30.37,NNE,12,0.8,2.3,67,0.00,CLR,,0.00,WeatherDisplay:10.37,2013-10-14 00:17:00,
2013-10-13 20:19:00,51.7,41.1,30.38,NNE,12,0.6,1.1,67,0.00,CLR,,0.00,WeatherDisplay:10.37,2013-10-14 00:19:00,
2013-10-13 20:20:00,51.6,41.0,30.38,NNE,12,1.3,2.3,67,0.00,CLR,,0.00,WeatherDisplay:10.37,2013-10-14 00:20:00,
2013-10-13 20:21:00,51.6,41.0,30.38,NNE,12,1.1,2.3,67,0.00,CLR,,0.00,WeatherDisplay:10.37,2013-10-14 00:21:00,
2013-10-13 20:22:00,51.5,40.9,30.38,North,11,1.7,2.3,67,0.00,CLR,,0.00,WeatherDisplay:10.37,2013-10-14 00:22:00,
2013-10-13 20:24:00,51.4,41.2,30.38,NNE,12,0.3,2.3,68,0.00,CLR,,0.00,WeatherDisplay:10.37,2013-10-14 00:24:00,
2013-10-13 20:25:00,51.4,41.2,30.38,North,11,0.4,1.1,68,0.00,CLR,,0.00,WeatherDisplay:10.37,2013-10-14 00:25:00,
2013-10-13 20:26:00,51.3,41.1,30.38,North,11,0.1,1.1,68,0.00,CLR,,0.00,WeatherDisplay:10.37,2013-10-14 00:26:00,
2013-10-13 20:27:00,51.3,41.1,30.38,North,11,0.7,1.1,68,0.00,CLR,,0.00,WeatherDisplay:10.37,2013-10-14 00:27:00,
2013-10-13 20:28:00,51.3,41.1,30.38,NNE,12,0.7,2.3,68,0.00,CLR,,0.00,WeatherDisplay:10.37,2013-10-14 00:28:00,
2013-10-13 20:30:00,51.2,41.0,30.38,NNE,13,1.0,2.0,68,0.00,CLR,,0.00,WeatherDisplay:10.37,2013-10-14 00:30:00,
2013-10-13 20:31:00,51.1,41.3,30.38,NNE,16,1.8,2.3,69,0.00,CLR,,0.00,WeatherDisplay:10.37,2013-10-14 00:31:00,
2013-10-13 20:32:00,51.1,41.3,30.38,NNE,16,2.0,3.5,69,0.00,CLR,,0.00,WeatherDisplay:10.37,2013-10-14 00:32:00,
2013-10-13 20:33:00,51.1,41.3,30.38,NNE,16,1.2,2.3,69,0.00,CLR,,0.00,WeatherDisplay:10.37,2013-10-14 00:33:00,
2013-10-13 20:35:00,51.1,41.3,30.38,NNE,17,0.7,2.3,69,0.00,CLR,,0.00,WeatherDisplay:10.37,2013-10-14 00:35:00,
2013-10-13 20:37:00,51.0,41.2,30.38,NNE,14,0.5,2.3,69,0.00,CLR,,0.00,WeatherDisplay:10.37,2013-10-14 00:37:00,
2013-10-13 20:38:00,51.0,41.2,30.38,NNE,12,0.6,2.3,69,0.00,CLR,,0.00,WeatherDisplay:10.37,2013-10-14 00:38:00,
2013-10-13 20:40:00,51.0,41.2,30.38,NNE,15,0.0,2.0,69,0.00,CLR,,0.00,WeatherDisplay:10.37,2013-10-14 00:40:00,
2013-10-13 20:42:00,50.8,41.0,30.38,NNE,12,0.0,1.1,69,0.00,CLR,,0.00,WeatherDisplay:10.37,2013-10-14 00:42:00,
2013-10-13 20:43:00,50.7,40.9,30.38,NNE,12,0.0,0.0,69,0.00,CLR,,0.00,WeatherDisplay:10.37,2013-10-14 00:43:00,
2013-10-13 20:45:00,50.5,41.1,30.38,NNE,12,0.0,0.0,70,0.00,CLR,,0.00,WeatherDisplay:10.37,2013-10-14 00:45:00,
2013-10-13 20:46:00,50.3,40.9,30.38,NNE,12,0.1,1.1,70,0.00,CLR,,0.00,WeatherDisplay:10.37,2013-10-14 00:46:00,
2013-10-13 20:47:00,50.2,40.8,30.38,NNE,12,0.0,1.1,70,0.00,CLR,,0.00,WeatherDisplay:10.37,2013-10-14 00:47:00,
2013-10-13 20:48:00,50.1,41.1,30.38,NNE,12,0.0,1.1,71,0.00,CLR,,0.00,WeatherDisplay:10.37,2013-10-14 00:48:00,
2013-10-13 20:49:00,50.0,41.0,30.38,NNE,12,0.0,0.0,71,0.00,CLR,,0.00,WeatherDisplay:10.37,2013-10-14 00:49:00,
2013-10-13 20:51:00,49.8,41.1,30.38,NNE,12,0.0,0.0,72,0.00,CLR,,0.00,WeatherDisplay:10.37,2013-10-14 00:51:00,
2013-10-13 20:52:00,49.7,41.0,30.38,NNE,12,0.0,0.0,72,0.00,CLR,,0.00,WeatherDisplay:10.37,2013-10-14 00:52:00,
2013-10-13 20:53:00,49.6,40.9,30.38,NNE,12,0.0,0.0,72,0.00,CLR,,0.00,WeatherDisplay:10.37,2013-10-14 00:53:00,
2013-10-13 20:54:00,49.6,40.9,30.38,NNE,12,0.0,0.0,72,0.00,CLR,,0.00,WeatherDisplay:10.37,2013-10-14 00:54:00,
2013-10-13 20:55:00,49.5,41.2,30.38,NNE,12,0.0,0.0,73,0.00,CLR,,0.00,WeatherDisplay:10.37,2013-10-14 00:55:00,
2013-10-13 20:56:00,49.3,41.0,30.38,NNE,12,0.0,0.0,73,0.00,CLR,,0.00,WeatherDisplay:10.37,2013-10-14 00:56:00,
2013-10-13 20:57:00,49.2,40.9,30.38,NNE,12,0.0,0.0,73,0.00,CLR,,0.00,WeatherDisplay:10.37,2013-10-14 00:57:00,
2013-10-13 20:58:00,49.1,40.8,30.38,NNE,12,0.0,0.0,73,0.00,CLR,,0.00,WeatherDisplay:10.37,2013-10-14 00:58:00,
2013-10-13 20:59:00,49.1,40.8,30.38,NNE,12,0.0,0.0,73,0.00,CLR,,0.00,WeatherDisplay:10.37,2013-10-14 00:59:00,
2013-10-13 21:00:00,49.0,41.1,30.38,NNE,12,0.0,0.0,74,0.00,CLR,,0.00,WeatherDisplay:10.37,2013-10-14 01:00:00,
2013-10-13 21:02:00,48.8,40.9,30.38,NNE,12,0.2,1.1,74,0.00,CLR,,0.00,WeatherDisplay:10.37,2013-10-14 01:02:00,
2013-10-13 21:04:00,48.7,41.1,30.38,NNE,12,0.4,1.1,75,0.00,CLR,,0.00,WeatherDisplay:10.37,2013-10-14 01:04:00,
2013-10-13 21:05:00,48.7,41.1,30.38,NNE,12,0.5,1.1,75,0.00,CLR,,0.00,WeatherDisplay:10.37,2013-10-14 01:05:00,
2013-10-13 21:07:00,48.6,41.0,30.38,NNE,13,0.1,2.3,75,0.00,CLR,,0.00,WeatherDisplay:10.37,2013-10-14 01:07:00,
2013-10-13 21:09:00,48.6,41.0,30.38,NNE,13,0.1,1.1,75,0.00,CLR,,0.00,WeatherDisplay:10.37,2013-10-14 01:09:00,
2013-10-13 21:11:00,48.6,41.0,30.38,NNE,13,0.2,1.1,75,0.00,CLR,,0.00,WeatherDisplay:10.37,2013-10-14 01:11:00,
2013-10-13 21:12:00,48.5,40.9,30.38,NNE,13,0.0,0.0,75,0.00,CLR,,0.00,WeatherDisplay:10.37,2013-10-14 01:12:00,
2013-10-13 21:14:00,48.5,40.9,30.39,NNE,13,0.0,0.0,75,0.00,CLR,,0.00,WeatherDisplay:10.37,2013-10-14 01:14:00,
2013-10-13 21:16:00,48.3,41.1,30.39,NNE,13,0.0,0.0,76,0.00,CLR,,0.00,WeatherDisplay:10.37,2013-10-14 01:16:00,
2013-10-13 21:17:00,48.2,41.0,30.39,NNE,13,0.0,0.0,76,0.00,CLR,,0.00,WeatherDisplay:10.37,2013-10-14 01:17:00,
2013-10-13 21:18:00,48.2,41.0,30.39,NNE,13,0.0,0.0,76,0.00,CLR,,0.00,WeatherDisplay:10.37,2013-10-14 01:18:00,
2013-10-13 21:19:00,48.1,40.9,30.39,NNE,13,0.0,0.0,76,0.00,CLR,,0.00,WeatherDisplay:10.37,2013-10-14 01:19:00,
2013-10-13 21:20:00,48.1,40.9,30.39,NNE,13,0.0,0.0,76,0.00,CLR,,0.00,WeatherDisplay:10.37,2013-10-14 01:20:00,
2013-10-13 21:21:00,48.0,40.8,30.39,NNE,13,0.0,0.0,76,0.00,CLR,,0.00,WeatherDisplay:10.37,2013-10-14 01:21:00,
2013-10-13 21:23:00,47.9,41.0,30.39,NNE,13,0.0,0.0,77,0.00,CLR,,0.00,WeatherDisplay:10.37,2013-10-14 01:23:00,
2013-10-13 21:24:00,47.9,41.0,30.39,NNE,13,0.0,0.0,77,0.00,CLR,,0.00,WeatherDisplay:10.37,2013-10-14 01:24:00,
2013-10-13 21:25:00,47.8,40.9,30.39,NNE,13,0.0,0.0,77,0.00,CLR,,0.00,WeatherDisplay:10.37,2013-10-14 01:25:00,
2013-10-13 21:27:00,47.7,40.8,30.39,NNE,13,0.0,0.0,77,0.00,CLR,,0.00,WeatherDisplay:10.37,2013-10-14 01:27:00,
2013-10-13 21:28:00,47.7,41.2,30.39,NNE,13,0.0,0.0,78,0.00,CLR,,0.00,WeatherDisplay:10.37,2013-10-14 01:28:00,
2013-10-13 21:29:00,47.6,41.1,30.39,NNE,13,0.0,0.0,78,0.00,CLR,,0.00,WeatherDisplay:10.37,2013-10-14 01:29:00,
2013-10-13 21:30:00,47.6,41.1,30.39,NNE,13,0.0,0.0,78,0.00,CLR,,0.00,WeatherDisplay:10.37,2013-10-14 01:30:00,
2013-10-13 21:32:00,47.6,41.1,30.39,NNE,13,0.2,1.1,78,0.00,CLR,,0.00,WeatherDisplay:10.37,2013-10-14 01:32:00,
2013-10-13 21:33:00,47.6,41.1,30.39,NNE,13,0.0,1.1,78,0.00,CLR,,0.00,WeatherDisplay:10.37,2013-10-14 01:33:00,
2013-10-13 21:34:00,47.6,41.1,30.39,NNE,13,0.0,0.0,78,0.00,CLR,,0.00,WeatherDisplay:10.37,2013-10-14 01:34:00,
2013-10-13 21:35:00,47.6,41.1,30.39,NNE,13,0.0,1.1,78,0.00,CLR,,0.00,WeatherDisplay:10.37,2013-10-14 01:35:00,
2013-10-13 21:37:00,47.7,41.2,30.39,NNE,13,0.0,0.0,78,0.00,CLR,,0.00,WeatherDisplay:10.37,2013-10-14 01:37:00,
2013-10-13 21:38:00,47.7,41.2,30.39,NNE,13,0.1,0.0,78,0.00,CLR,,0.00,WeatherDisplay:10.37,2013-10-14 01:38:00,
2013-10-13 21:39:00,47.7,41.2,30.39,NNE,13,0.0,1.1,78,0.00,CLR,,0.00,WeatherDisplay:10.37,2013-10-14 01:39:00,
2013-10-13 21:40:00,47.7,41.2,30.39,NNE,13,0.2,0.0,78,0.00,CLR,,0.00,WeatherDisplay:10.37,2013-10-14 01:40:00,
2013-10-13 21:41:00,47.8,41.3,30.39,NNE,13,0.0,1.1,78,0.00,CLR,,0.00,WeatherDisplay:10.37,2013-10-14 01:41:00,
2013-10-13 21:42:00,47.8,41.3,30.39,NNE,13,0.1,1.1,78,0.00,CLR,,0.00,WeatherDisplay:10.37,2013-10-14 01:42:00,
2013-10-13 21:43:00,47.8,41.3,30.39,NNE,13,0.1,1.1,78,0.00,CLR,,0.00,WeatherDisplay:10.37,2013-10-14 01:43:00,
2013-10-13 21:44:00,47.8,41.3,30.39,NNE,13,0.1,1.1,78,0.00,CLR,,0.00,WeatherDisplay:10.37,2013-10-14 01:44:00,
2013-10-13 21:46:00,47.8,41.3,30.39,NNE,13,0.0,0.0,78,0.00,CLR,,0.00,WeatherDisplay:10.37,2013-10-14 01:46:00,
2013-10-13 21:48:00,47.7,41.2,30.39,NNE,13,0.0,1.1,78,0.00,CLR,,0.00,WeatherDisplay:10.37,2013-10-14 01:48:00,
2013-10-13 21:49:00,47.7,41.2,30.39,NNE,13,0.0,0.0,78,0.00,CLR,,0.00,WeatherDisplay:10.37,2013-10-14 01:49:00,
2013-10-13 21:50:00,47.7,41.2,30.39,NNE,13,0.0,0.0,78,0.00,CLR,,0.00,WeatherDisplay:10.37,2013-10-14 01:50:00,
2013-10-13 21:51:00,47.7,41.2,30.39,NNE,13,0.1,1.1,78,0.00,CLR,,0.00,WeatherDisplay:10.37,2013-10-14 01:51:00,
2013-10-13 21:54:00,47.6,41.4,30.39,NNE,13,0.0,1.1,79,0.00,CLR,,0.00,WeatherDisplay:10.37,2013-10-14 01:54:00,
2013-10-13 21:55:00,47.6,41.4,30.39,NNE,13,0.1,1.1,79,0.00,CLR,,0.00,WeatherDisplay:10.37,2013-10-14 01:55:00,
2013-10-13 21:56:00,47.6,41.4,30.39,NNE,13,0.0,0.0,79,0.00,CLR,,0.00,WeatherDisplay:10.37,2013-10-14 01:56:00,
2013-10-13 21:59:00,47.4,41.2,30.39,NNE,13,0.0,1.1,79,0.00,CLR,,0.00,WeatherDisplay:10.37,2013-10-14 01:59:00,
2013-10-13 22:00:00,47.4,41.2,30.39,NNE,13,0.2,1.1,79,0.00,CLR,,0.00,WeatherDisplay:10.37,2013-10-14 02:00:00,
2013-10-13 22:01:00,47.4,41.2,30.39,NNE,13,0.0,1.1,79,0.00,CLR,,0.00,WeatherDisplay:10.37,2013-10-14 02:01:00,
2013-10-13 22:02:00,47.4,41.2,30.39,NNE,13,0.2,1.1,79,0.00,CLR,,0.00,WeatherDisplay:10.37,2013-10-14 02:02:00,
2013-10-13 22:04:00,47.4,41.2,30.39,NNE,13,0.0,0.0,79,0.00,CLR,,0.00,WeatherDisplay:10.37,2013-10-14 02:04:00,
2013-10-13 22:05:00,47.4,41.2,30.39,NNE,13,0.0,0.0,79,0.00,CLR,,0.00,WeatherDisplay:10.37,2013-10-14 02:05:00,
2013-10-13 22:06:00,47.4,41.2,30.39,NNE,13,0.0,0.0,79,0.00,CLR,,0.00,WeatherDisplay:10.37,2013-10-14 02:06:00,
2013-10-13 22:08:00,47.4,41.2,30.39,NNE,13,0.0,1.1,79,0.00,CLR,,0.00,WeatherDisplay:10.37,2013-10-14 02:08:00,
2013-10-13 22:09:00,47.3,41.1,30.39,NNE,13,0.0,0.0,79,0.00,CLR,,0.00,WeatherDisplay:10.37,2013-10-14 02:09:00,
2013-10-13 22:10:00,47.3,41.1,30.39,NNE,13,0.1,1.1,79,0.00,CLR,,0.00,WeatherDisplay:10.37,2013-10-14 02:10:00,
2013-10-13 22:11:00,47.2,41.3,30.39,NNE,13,0.0,1.1,80,0.00,CLR,,0.00,WeatherDisplay:10.37,2013-10-14 02:11:00,
2013-10-13 22:13:00,47.2,41.0,30.39,NNE,13,0.0,0.0,79,0.00,CLR,,0.00,WeatherDisplay:10.37,2013-10-14 02:13:00,
2013-10-13 22:14:00,47.2,41.3,30.39,NNE,13,0.0,0.0,80,0.00,CLR,,0.00,WeatherDisplay:10.37,2013-10-14 02:14:00,
2013-10-13 22:15:00,47.1,41.2,30.39,NNE,13,0.0,0.0,80,0.00,CLR,,0.00,WeatherDisplay:10.37,2013-10-14 02:15:00,
2013-10-13 22:17:00,47.1,41.2,30.39,NNE,13,0.0,0.0,80,0.00,CLR,,0.00,WeatherDisplay:10.37,2013-10-14 02:17:00,
2013-10-13 22:18:00,47.1,41.2,30.39,NNE,13,0.0,1.1,80,0.00,CLR,,0.00,WeatherDisplay:10.37,2013-10-14 02:18:00,
2013-10-13 22:20:00,47.2,41.3,30.39,NNE,13,0.1,1.1,80,0.00,CLR,,0.00,WeatherDisplay:10.37,2013-10-14 02:20:00,
2013-10-13 22:22:00,47.1,41.2,30.39,NNE,13,0.0,1.1,80,0.00,CLR,,0.00,WeatherDisplay:10.37,2013-10-14 02:22:00,
2013-10-13 22:23:00,47.0,40.8,30.39,NNE,13,0.0,1.1,79,0.00,CLR,,0.00,WeatherDisplay:10.37,2013-10-14 02:23:00,
2013-10-13 22:25:00,46.9,41.1,30.39,NNE,13,0.1,1.1,80,0.00,CLR,,0.00,WeatherDisplay:10.37,2013-10-14 02:25:00,
2013-10-13 22:26:00,46.9,41.1,30.39,NNE,13,0.0,1.1,80,0.00,CLR,,0.00,WeatherDisplay:10.37,2013-10-14 02:26:00,
2013-10-13 22:27:00,46.8,41.3,30.39,NNE,13,0.8,2.3,81,0.00,CLR,,0.00,WeatherDisplay:10.37,2013-10-14 02:27:00,
2013-10-13 22:28:00,46.7,41.2,30.40,NNE,13,0.8,2.3,81,0.00,CLR,,0.00,WeatherDisplay:10.37,2013-10-14 02:28:00,
2013-10-13 22:30:00,46.7,41.2,30.40,NNE,13,0.7,2.3,81,0.00,CLR,,0.00,WeatherDisplay:10.37,2013-10-14 02:30:00,
2013-10-13 22:31:00,46.7,41.2,30.40,NNE,13,0.6,2.3,81,0.00,CLR,,0.00,WeatherDisplay:10.37,2013-10-14 02:31:00,
2013-10-13 22:33:00,46.6,40.8,30.39,NNE,13,0.0,1.1,80,0.00,CLR,,0.00,WeatherDisplay:10.37,2013-10-14 02:33:00,
2013-10-13 22:34:00,46.5,40.3,30.40,NNE,13,0.1,1.1,79,0.00,CLR,,0.00,WeatherDisplay:10.37,2013-10-14 02:34:00,
2013-10-13 22:35:00,46.3,40.1,30.39,NNE,13,0.0,0.0,79,0.00,CLR,,0.00,WeatherDisplay:10.37,2013-10-14 02:35:00,
2013-10-13 22:36:00,46.3,40.1,30.39,NNE,13,0.0,1.1,79,0.00,CLR,,0.00,WeatherDisplay:10.37,2013-10-14 02:36:00,
2013-10-13 22:38:00,45.9,39.8,30.39,NNE,13,0.0,0.0,79,0.00,CLR,,0.00,WeatherDisplay:10.37,2013-10-14 02:38:00,
2013-10-13 22:39:00,45.8,39.7,30.39,NNE,13,0.0,0.0,79,0.00,CLR,,0.00,WeatherDisplay:10.37,2013-10-14 02:39:00,
2013-10-13 22:41:00,45.5,39.7,30.39,NNE,13,0.0,0.0,80,0.00,CLR,,0.00,WeatherDisplay:10.37,2013-10-14 02:41:00,
2013-10-13 22:44:00,45.1,40.2,30.39,NNE,13,0.0,1.0,83,0.00,CLR,,0.00,WeatherDisplay:10.37,2013-10-14 02:44:00,
2013-10-13 22:46:00,45.1,40.6,30.39,NNE,13,0.5,1.1,84,0.00,CLR,,0.00,WeatherDisplay:10.37,2013-10-14 02:46:00,
2013-10-13 22:47:00,45.1,40.6,30.39,NNE,13,0.4,2.0,84,0.00,CLR,,0.00,WeatherDisplay:10.37,2013-10-14 02:47:00,
2013-10-13 22:49:00,45.2,41.0,30.39,NNE,13,0.0,2.3,85,0.00,CLR,,0.00,WeatherDisplay:10.37,2013-10-14 02:49:00,
2013-10-13 22:51:00,45.3,41.1,30.39,NNE,13,0.0,0.0,85,0.00,CLR,,0.00,WeatherDisplay:10.37,2013-10-14 02:51:00,
2013-10-13 22:52:00,45.3,41.1,30.39,NNE,13,0.0,0.0,85,0.00,CLR,,0.00,WeatherDisplay:10.37,2013-10-14 02:52:00,
2013-10-13 22:54:00,45.3,40.7,30.39,NNE,13,0.0,1.0,84,0.00,CLR,,0.00,WeatherDisplay:10.37,2013-10-14 02:54:00,
2013-10-13 22:56:00,45.2,40.7,30.39,NNE,13,0.5,1.1,84,0.00,CLR,,0.00,WeatherDisplay:10.37,2013-10-14 02:56:00,
2013-10-13 22:57:00,45.2,41.0,30.39,NNE,13,0.8,1.1,85,0.00,CLR,,0.00,WeatherDisplay:10.37,2013-10-14 02:57:00,
2013-10-13 22:59:00,45.3,41.1,30.40,NNE,13,0.2,1.1,85,0.00,CLR,,0.00,WeatherDisplay:10.37,2013-10-14 02:59:00,
2013-10-13 23:00:00,45.3,41.1,30.40,NNE,13,0.0,2.0,85,0.00,CLR,,0.00,WeatherDisplay:10.37,2013-10-14 03:00:00,
2013-10-13 23:01:00,45.3,41.1,30.40,NNE,13,0.0,1.1,85,0.00,CLR,,0.00,WeatherDisplay:10.37,2013-10-14 03:01:00,
2013-10-13 23:02:00,45.3,40.7,30.40,NNE,13,0.0,0.0,84,0.00,CLR,,0.00,WeatherDisplay:10.37,2013-10-14 03:02:00,
2013-10-13 23:05:00,45.3,40.7,30.40,NNE,13,0.0,1.0,84,0.00,CLR,,0.00,WeatherDisplay:10.37,2013-10-14 03:05:00,
2013-10-13 23:06:00,45.2,40.3,30.40,NNE,13,0.0,0.0,83,0.00,CLR,,0.00,WeatherDisplay:10.37,2013-10-14 03:06:00,
2013-10-13 23:07:00,45.1,40.2,30.40,NNE,13,0.0,0.0,83,0.00,CLR,,0.00,WeatherDisplay:10.37,2013-10-14 03:07:00,
2013-10-13 23:10:00,44.9,40.0,30.40,NNE,13,0.1,1.1,83,0.00,CLR,,0.00,WeatherDisplay:10.37,2013-10-14 03:10:00,
2013-10-13 23:11:00,44.8,40.0,30.40,NNE,13,0.0,1.1,83,0.00,CLR,,0.00,WeatherDisplay:10.37,2013-10-14 03:11:00,
2013-10-13 23:12:00,44.7,40.2,30.40,NNE,13,0.0,1.1,84,0.00,CLR,,0.00,WeatherDisplay:10.37,2013-10-14 03:12:00,
2013-10-13 23:13:00,44.6,40.1,30.40,NNE,13,0.0,0.0,84,0.00,CLR,,0.00,WeatherDisplay:10.37,2013-10-14 03:13:00,
2013-10-13 23:15:00,44.5,40.0,30.40,NNE,13,0.0,0.0,84,0.00,CLR,,0.00,WeatherDisplay:10.37,2013-10-14 03:15:00,
2013-10-13 23:16:00,44.4,39.9,30.40,NNE,13,0.0,0.0,84,0.00,CLR,,0.00,WeatherDisplay:10.37,2013-10-14 03:16:00,
2013-10-13 23:17:00,44.3,39.8,30.39,NNE,13,0.0,1.1,84,0.00,CLR,,0.00,WeatherDisplay:10.37,2013-10-14 03:17:00,
2013-10-13 23:18:00,44.2,39.7,30.40,NNE,13,0.0,0.0,84,0.00,CLR,,0.00,WeatherDisplay:10.37,2013-10-14 03:18:00,
2013-10-13 23:20:00,44.0,39.8,30.40,NNE,13,0.0,1.1,85,0.00,CLR,,0.00,WeatherDisplay:10.37,2013-10-14 03:20:00,
2013-10-13 23:21:00,44.0,39.8,30.40,NNE,13,0.0,0.0,85,0.00,CLR,,0.00,WeatherDisplay:10.37,2013-10-14 03:21:00,
2013-10-13 23:22:00,43.9,39.7,30.40,NNE,13,0.0,0.0,85,0.00,CLR,,0.00,WeatherDisplay:10.37,2013-10-14 03:22:00,
2013-10-13 23:23:00,43.8,39.6,30.40,NNE,13,0.0,0.0,85,0.00,CLR,,0.00,WeatherDisplay:10.37,2013-10-14 03:23:00,
2013-10-13 23:25:00,43.7,39.5,30.40,NNE,13,0.0,0.0,85,0.00,CLR,,0.00,WeatherDisplay:10.37,2013-10-14 03:25:00,
2013-10-13 23:26:00,43.7,39.8,30.40,NNE,13,0.0,0.0,86,0.00,CLR,,0.00,WeatherDisplay:10.37,2013-10-14 03:26:00,
2013-10-13 23:27:00,43.6,39.7,30.40,NNE,13,0.0,0.0,86,0.00,CLR,,0.00,WeatherDisplay:10.37,2013-10-14 03:27:00,
2013-10-13 23:28:00,43.5,39.6,30.40,NNE,13,0.0,0.0,86,0.00,CLR,,0.00,WeatherDisplay:10.37,2013-10-14 03:28:00,
2013-10-13 23:29:00,43.4,39.5,30.40,NNE,13,0.0,0.0,86,0.00,CLR,,0.00,WeatherDisplay:10.37,2013-10-14 03:29:00,
2013-10-13 23:30:00,43.4,39.8,30.40,NNE,13,0.0,0.0,87,0.00,CLR,,0.00,WeatherDisplay:10.37,2013-10-14 03:30:00,
2013-10-13 23:32:00,43.3,39.7,30.40,NNE,13,0.0,0.0,87,0.00,CLR,,0.00,WeatherDisplay:10.37,2013-10-14 03:32:00,
2013-10-13 23:33:00,43.3,39.7,30.40,NNE,13,0.0,0.0,87,0.00,CLR,,0.00,WeatherDisplay:10.37,2013-10-14 03:33:00,
2013-10-13 23:34:00,43.3,40.0,30.40,NNE,13,0.0,0.0,88,0.00,CLR,,0.00,WeatherDisplay:10.37,2013-10-14 03:34:00,
2013-10-13 23:35:00,43.3,40.0,30.40,NNE,13,0.0,0.0,88,0.00,CLR,,0.00,WeatherDisplay:10.37,2013-10-14 03:35:00,
2013-10-13 23:37:00,43.2,39.9,30.40,NNE,13,0.0,0.0,88,0.00,CLR,,0.00,WeatherDisplay:10.37,2013-10-14 03:37:00,
2013-10-13 23:38:00,43.2,39.9,30.40,NNE,13,0.0,0.0,88,0.00,CLR,,0.00,WeatherDisplay:10.37,2013-10-14 03:38:00,
2013-10-13 23:40:00,43.2,39.8,30.40,NNE,13,0.0,0.0,88,0.00,CLR,,0.00,WeatherDisplay:10.37,2013-10-14 03:40:00,
2013-10-13 23:42:00,43.1,40.1,30.40,NNE,13,0.0,0.0,89,0.00,CLR,,0.00,WeatherDisplay:10.37,2013-10-14 03:42:00,
2013-10-13 23:43:00,43.1,40.1,30.40,NNE,13,0.0,0.0,89,0.00,CLR,,0.00,WeatherDisplay:10.37,2013-10-14 03:43:00,
2013-10-13 23:45:00,43.1,39.8,30.40,NNE,13,0.0,0.0,88,0.00,CLR,,0.00,WeatherDisplay:10.37,2013-10-14 03:45:00,
2013-10-13 23:46:00,43.0,39.7,30.40,NNE,13,0.0,0.0,88,0.00,CLR,,0.00,WeatherDisplay:10.37,2013-10-14 03:46:00,
2013-10-13 23:47:00,43.0,39.7,30.40,NNE,13,0.0,0.0,88,0.00,CLR,,0.00,WeatherDisplay:10.37,2013-10-14 03:47:00,
2013-10-13 23:48:00,43.0,40.0,30.40,NNE,13,0.0,0.0,89,0.00,CLR,,0.00,WeatherDisplay:10.37,2013-10-14 03:48:00,
2013-10-13 23:49:00,43.0,40.0,30.40,NNE,13,0.0,0.0,89,0.00,CLR,,0.00,WeatherDisplay:10.37,2013-10-14 03:49:00,
2013-10-13 23:50:00,43.0,40.0,30.40,NNE,13,0.0,0.0,89,0.00,CLR,,0.00,WeatherDisplay:10.37,2013-10-14 03:50:00,
2013-10-13 23:51:00,43.0,40.0,30.40,NNE,13,0.0,0.0,89,0.00,CLR,,0.00,WeatherDisplay:10.37,2013-10-14 03:51:00,
2013-10-13 23:52:00,42.9,39.9,30.40,NNE,13,0.0,0.0,89,0.00,CLR,,0.00,WeatherDisplay:10.37,2013-10-14 03:52:00,
2013-10-13 23:53:00,42.9,39.9,30.40,NNE,13,0.0,0.0,89,0.00,CLR,,0.00,WeatherDisplay:10.37,2013-10-14 03:53:00,
2013-10-13 23:55:00,42.9,39.9,30.40,NNE,13,0.0,0.0,89,0.00,CLR,,0.00,WeatherDisplay:10.37,2013-10-14 03:55:00,
2013-10-13 23:56:00,42.9,39.9,30.40,NNE,13,0.0,0.0,89,0.00,CLR,,0.00,WeatherDisplay:10.37,2013-10-14 03:56:00,
2013-10-13 23:58:00,42.9,39.9,30.40,NNE,13,0.0,0.0,89,0.00,CLR,,0.00,WeatherDisplay:10.37,2013-10-14 03:58:00,